TimeCST,TemperatureF,Dew PointF,Humidity,Sea Level PressureIn,VisibilityMPH,Wind Direction,Wind SpeedMPH,Gust SpeedMPH,PrecipitationIn,Events,Conditions,WindDirDegrees,DateUTC
12:12 AM,26.6,19.4,74,29.80,10.0,Calm,Calm,-,N/A,,Overcast,0,2013-02-23 06:12:00
12:32 AM,26.6,19.4,74,29.80,10.0,Calm,Calm,-,N/A,,Overcast,0,2013-02-23 06:32:00
12:52 AM,26.6,19.4,74,29.80,10.0,Calm,Calm,-,N/A,,Overcast,0,2013-02-23 06:52:00
1:12 AM,26.6,19.4,74,29.79,10.0,Calm,Calm,-,N/A,,Overcast,0,2013-02-23 07:12:00
1:32 AM,26.6,17.6,69,29.79,10.0,Calm,Calm,-,N/A,,Overcast,0,2013-02-23 07:32:00
1:52 AM,24.8,17.6,74,29.79,10.0,Calm,Calm,-,N/A,,Overcast,0,2013-02-23 07:52:00
2:12 AM,24.8,17.6,74,29.79,10.0,Calm,Calm,-,N/A,,Overcast,0,2013-02-23 08:12:00
2:32 AM,24.8,17.6,74,29.79,10.0,Calm,Calm,-,N/A,,Overcast,0,2013-02-23 08:32:00
2:52 AM,24.8,17.6,74,29.78,10.0,Calm,Calm,-,N/A,,Overcast,0,2013-02-23 08:52:00
3:12 AM,23.0,17.6,80,29.79,7.0,Calm,Calm,-,N/A,Snow,Light Snow,0,2013-02-23 09:12:00
3:32 AM,23.0,17.6,80,29.77,10.0,Calm,Calm,-,N/A,,Overcast,0,2013-02-23 09:32:00
3:52 AM,21.2,15.8,80,29.77,10.0,Calm,Calm,-,N/A,,Overcast,0,2013-02-23 09:52:00
4:12 AM,21.2,15.8,80,29.77,10.0,Calm,Calm,-,N/A,Snow,Light Snow,0,2013-02-23 10:12:00
4:32 AM,21.2,15.8,80,29.77,10.0,Calm,Calm,-,N/A,,Overcast,0,2013-02-23 10:32:00
4:52 AM,21.2,17.6,86,29.77,10.0,Calm,Calm,-,N/A,Snow,Light Snow,0,2013-02-23 10:52:00
5:12 AM,21.2,15.8,80,29.77,10.0,Calm,Calm,-,N/A,,Overcast,0,2013-02-23 11:12:00
5:32 AM,21.2,15.8,80,29.77,10.0,Calm,Calm,-,N/A,,Overcast,0,2013-02-23 11:32:00
5:52 AM,21.2,15.8,80,29.78,10.0,Calm,Calm,-,N/A,,Overcast,0,2013-02-23 11:52:00
6:12 AM,21.2,15.8,80,29.78,10.0,Calm,Calm,-,N/A,,Overcast,0,2013-02-23 12:12:00
6:32 AM,23.0,15.8,74,29.79,10.0,Calm,Calm,-,N/A,,Overcast,0,2013-02-23 12:32:00
6:52 AM,23.0,15.8,74,29.79,10.0,Calm,Calm,-,N/A,,Overcast,0,2013-02-23 12:52:00
7:12 AM,23.0,15.8,74,29.79,10.0,Calm,Calm,-,N/A,,Overcast,0,2013-02-23 13:12:00
7:32 AM,23.0,15.8,74,29.79,10.0,Calm,Calm,-,N/A,,Overcast,0,2013-02-23 13:32:00
7:52 AM,23.0,15.8,74,29.79,10.0,Calm,Calm,-,N/A,,Overcast,0,2013-02-23 13:52:00
8:12 AM,23.0,17.6,80,29.79,10.0,Calm,Calm,-,N/A,,Overcast,0,2013-02-23 14:12:00
8:32 AM,23.0,15.8,74,29.79,10.0,Calm,Calm,-,N/A,,Overcast,0,2013-02-23 14:32:00
8:52 AM,24.8,17.6,74,29.79,10.0,Calm,Calm,-,N/A,,Overcast,0,2013-02-23 14:52:00
9:12 AM,24.8,17.6,74,29.80,10.0,Calm,Calm,-,N/A,,Overcast,0,2013-02-23 15:12:00
9:32 AM,26.6,17.6,69,29.80,10.0,Calm,Calm,-,N/A,,Overcast,0,2013-02-23 15:32:00
9:52 AM,26.6,17.6,69,29.80,10.0,Calm,Calm,-,N/A,,Overcast,0,2013-02-23 15:52:00
10:12 AM,28.4,17.6,64,29.80,10.0,Calm,Calm,-,N/A,,Overcast,0,2013-02-23 16:12:00
10:32 AM,28.4,17.6,64,29.81,10.0,Calm,Calm,-,N/A,,Overcast,0,2013-02-23 16:32:00
10:52 AM,28.4,17.6,64,29.81,10.0,Calm,Calm,-,N/A,,Overcast,0,2013-02-23 16:52:00
11:12 AM,28.4,17.6,64,29.81,10.0,Calm,Calm,-,N/A,,Overcast,0,2013-02-23 17:12:00
11:32 AM,30.2,17.6,60,29.81,10.0,Calm,Calm,-,N/A,,Overcast,0,2013-02-23 17:32:00
11:52 AM,30.2,17.6,60,29.80,10.0,Calm,Calm,-,N/A,,Overcast,0,2013-02-23 17:52:00
12:12 PM,30.2,17.6,60,29.80,10.0,Calm,Calm,-,N/A,,Overcast,0,2013-02-23 18:12:00
12:32 PM,32.0,17.6,55,29.80,10.0,Calm,Calm,-,N/A,,Overcast,0,2013-02-23 18:32:00
12:52 PM,32.0,15.8,51,29.80,10.0,Calm,Calm,-,N/A,,Overcast,0,2013-02-23 18:52:00
1:12 PM,32.0,15.8,51,29.79,10.0,Calm,Calm,-,N/A,,Overcast,0,2013-02-23 19:12:00
1:32 PM,32.0,15.8,51,29.79,10.0,Calm,Calm,-,N/A,,Overcast,0,2013-02-23 19:32:00
1:52 PM,32.0,15.8,51,29.79,10.0,Calm,Calm,-,N/A,,Overcast,0,2013-02-23 19:52:00
2:12 PM,32.0,15.8,51,29.79,10.0,Calm,Calm,-,N/A,,Overcast,0,2013-02-23 20:12:00
2:32 PM,32.0,15.8,51,29.79,10.0,Calm,Calm,-,N/A,,Overcast,0,2013-02-23 20:32:00
2:52 PM,32.0,14.0,48,29.79,10.0,Calm,Calm,-,N/A,,Overcast,0,2013-02-23 20:52:00
3:12 PM,32.0,14.0,48,29.79,10.0,Calm,Calm,-,N/A,,Overcast,0,2013-02-23 21:12:00
3:32 PM,32.0,15.8,51,29.79,10.0,Calm,Calm,-,N/A,,Overcast,0,2013-02-23 21:32:00
3:52 PM,32.0,15.8,51,29.79,10.0,Calm,Calm,-,N/A,,Overcast,0,2013-02-23 21:52:00
4:12 PM,32.0,15.8,51,29.79,10.0,Calm,Calm,-,N/A,,Overcast,0,2013-02-23 22:12:00
4:32 PM,32.0,14.0,48,29.80,10.0,Calm,Calm,-,N/A,,Overcast,0,2013-02-23 22:32:00
4:52 PM,32.0,14.0,48,29.80,10.0,Calm,Calm,-,N/A,,Overcast,0,2013-02-23 22:52:00
5:12 PM,32.0,14.0,48,29.80,10.0,Calm,Calm,-,N/A,,Mostly Cloudy,0,2013-02-23 23:12:00
5:32 PM,32.0,14.0,48,29.81,10.0,Calm,Calm,-,N/A,,Mostly Cloudy,0,2013-02-23 23:32:00
5:52 PM,32.0,15.8,51,29.81,10.0,Calm,Calm,-,N/A,,Overcast,0,2013-02-23 23:52:00
6:12 PM,30.2,15.8,55,29.82,10.0,Calm,Calm,-,N/A,,Overcast,0,2013-02-24 00:12:00
6:32 PM,30.2,14.0,51,29.83,10.0,Calm,Calm,-,N/A,,Overcast,0,2013-02-24 00:32:00
6:52 PM,30.2,15.8,55,29.84,10.0,Calm,Calm,-,N/A,,Overcast,0,2013-02-24 00:52:00
7:12 PM,30.2,15.8,55,29.84,10.0,Calm,Calm,-,N/A,,Overcast,0,2013-02-24 01:12:00
7:32 PM,30.2,15.8,55,29.84,10.0,Calm,Calm,-,N/A,,Mostly Cloudy,0,2013-02-24 01:32:00
7:52 PM,28.4,15.8,59,29.84,10.0,Calm,Calm,-,N/A,,Overcast,0,2013-02-24 01:52:00
8:12 PM,28.4,15.8,59,29.85,10.0,Calm,Calm,-,N/A,,Overcast,0,2013-02-24 02:12:00
8:32 PM,28.4,15.8,59,29.85,10.0,Calm,Calm,-,N/A,,Overcast,0,2013-02-24 02:32:00
8:52 PM,28.4,15.8,59,29.85,10.0,Calm,Calm,-,N/A,,Overcast,0,2013-02-24 02:52:00
9:12 PM,26.6,15.8,64,29.85,10.0,Calm,Calm,-,N/A,,Scattered Clouds,0,2013-02-24 03:12:00
9:32 PM,26.6,15.8,64,29.86,10.0,Calm,Calm,-,N/A,,Clear,0,2013-02-24 03:32:00
10:12 PM,24.8,15.8,69,29.86,10.0,Calm,Calm,-,N/A,,Scattered Clouds,0,2013-02-24 04:12:00
10:32 PM,24.8,15.8,69,29.87,10.0,Calm,Calm,-,N/A,,Mostly Cloudy,0,2013-02-24 04:32:00
10:52 PM,24.8,14.0,64,29.88,10.0,Calm,Calm,-,N/A,,Scattered Clouds,0,2013-02-24 04:52:00
11:12 PM,23.0,14.0,68,29.88,10.0,Calm,Calm,-,N/A,,Scattered Clouds,0,2013-02-24 05:12:00
11:32 PM,23.0,15.8,74,29.89,10.0,Calm,Calm,-,N/A,,Scattered Clouds,0,2013-02-24 05:32:00
11:52 PM,23.0,14.0,68,29.89,10.0,Calm,Calm,-,N/A,,Mostly Cloudy,0,2013-02-24 05:52:00